QPF
0.11 0.09 0.07 0.07 0.08 0.10 0.12 0.13 0.11 0.10 0.09 0.09 0.08 0.07 0.06 0.05 0.05 0.05 0.05 0.04 0.03 0.03 0.02 0.02 0.01 0.01 0.01 0.01 0.02 0.02 0.02 0.01 0.01 0.01 0.01 0.01 0.01 0.02 0.02 0.01 0.01 0.01 0.01
0.07 0.08 0.07 0.06 0.07 0.07 0.08 0.12 0.12 0.13 0.15 0.15 0.11 0.09 0.08 0.06 0.06 0.06 0.04 0.03 0.04 0.04 0.03 0.02 0.01 0.01 0.01 0.02 0.01 0.01 0.01 0.01 0.01 0.01 0.01 0.01 0.01 0.02 0.02 0.02 0.02 0.02 0.02
0.06 0.07 0.08 0.07 0.08 0.08 0.08 0.09 0.10 0.11 0.13 0.17 0.14 0.12 0.11 0.09 0.08 0.07 0.06 0.06 0.05 0.05 0.04 0.04 0.03 0.03 0.03 0.03 0.04 0.03 0.02 0.01 0.01 0.01 0.01 0.01 0.01 0.02 0.03 0.02 0.02 0.03 0.03
0.08 0.09 0.07 0.07 0.07 0.08 0.10 0.12 0.11 0.11 0.13 0.17 0.18 0.14 0.13 0.13 0.11 0.10 0.09 0.09 0.09 0.10 0.07 0.05 0.04 0.04 0.03 0.03 0.03 0.03 0.03 0.03 0.02 0.02 0.01 0.01 0.02 0.02 0.02 0.02 0.02 0.02 0.02
0.08 0.08 0.07 0.09 0.09 0.11 0.15 0.17 0.17 0.20 0.20 0.19 0.20 0.18 0.17 0.15 0.12 0.12 0.13 0.13 0.12 0.09 0.07 0.04 0.03 0.03 0.02 0.02 0.02 0.02 0.02 0.02 0.02 0.02 0.01 0.01 0.01 0.01 0.01 0.01 0.01 0.01 0.01
0.09 0.09 0.11 0.14 0.16 0.16 0.19 0.21 0.20 0.20 0.19 0.18 0.20 0.21 0.19 0.17 0.17 0.19 0.17 0.14 0.10 0.08 0.06 0.03 0.02 0.01 0.01 0.01 0.01 0.02 0.01 0.01 0.01 0.01 0.01 0.01 0.01 0.01 0.01 0.01 0.01 0.01 0.01
0.12 0.12 0.12 0.13 0.13 0.14 0.15 0.17 0.16 0.14 0.11 0.08 0.10 0.14 0.15 0.14 0.13 0.12 0.09 0.09 0.07 0.04 0.03 0.02 0.01 0.01 0.00 0.00 0.00 0.00 0.00 0.00 0.00 0.00 0.00 0.00 0.00 0.00 0.00 0.00 0.00 0.00 0.00
0.12 0.12 0.13 0.13 0.13 0.14 0.16 0.14 0.14 0.12 0.09 0.07 0.08 0.09 0.08 0.06 0.04 0.03 0.03 0.03 0.02 0.02 0.01 0.01 0.01 0.00 0.00 0.00 0.00 0.00 0.00 0.00 0.01 0.00 0.00 0.00 0.00 0.00 0.00 0.00 0.00 0.00 0.00
0.13 0.14 0.13 0.13 0.14 0.16 0.16 0.13 0.12 0.11 0.08 0.06 0.05 0.04 0.03 0.02 0.02 0.02 0.01 0.02 0.01 0.01 0.01 0.00 0.00 0.00 0.01 0.01 0.00 0.00 0.00 0.00 0.00 0.00 0.00 0.00 0.00 0.00 0.00 0.00 0.00 0.00 0.00
0.12 0.13 0.13 0.14 0.15 0.14 0.14 0.12 0.10 0.08 0.06 0.05 0.04 0.02 0.01 0.01 0.01 0.01 0.01 0.01 0.01 0.01 0.01 0.01 0.01 0.00 0.00 0.00 0.00 0.00 0.00 0.00 0.00 0.00 0.00 0.00 0.00 0.00 0.00 0.00 0.00 0.00 0.00
0.12 0.12 0.13 0.13 0.12 0.11 0.11 0.10 0.07 0.05 0.04 0.03 0.03 0.02 0.01 0.01 0.01 0.01 0.00 0.01 0.01 0.01 0.00 0.00 0.00 0.00 0.00 0.00 0.00 0.00 0.00 0.00 0.00 0.00 0.00 0.00 0.00 0.00 0.00 0.00 0.00 0.00 0.00
0.14 0.13 0.12 0.13 0.12 0.11 0.09 0.07 0.06 0.05 0.05 0.03 0.02 0.02 0.02 0.02 0.01 0.01 0.00 0.00 0.00 0.00 0.00 0.00 0.00 0.00 0.00 0.00 0.00 0.00 0.00 0.00 0.00 0.00 0.00 0.00 0.00 0.00 0.00 0.00 0.00 0.00 0.00
0.17 0.15 0.12 0.10 0.11 0.11 0.09 0.07 0.06 0.05 0.04 0.04 0.03 0.02 0.01 0.01 0.01 0.00 0.00 0.00 0.00 0.00 0.00 0.00 0.00 0.00 0.00 0.00 0.00 0.00 0.00 0.00 0.00 0.00 0.00 0.00 0.00 0.00 0.00 0.00 0.00 0.00 0.00
0.18 0.16 0.14 0.12 0.11 0.10 0.09 0.09 0.07 0.06 0.04 0.03 0.02 0.01 0.00 0.00 0.00 0.00 0.00 0.00 0.00 0.00 0.00 0.00 0.00 0.00 0.00 0.00 0.00 0.00 0.00 0.00 0.00 0.00 0.00 0.00 0.00 0.00 0.00 0.00 0.00 0.00 0.00
0.14 0.13 0.12 0.11 0.09 0.08 0.06 0.05 0.04 0.03 0.02 0.01 0.01 0.01 0.00 0.00 0.00 0.00 0.00 0.00 0.00 0.00 0.00 0.00 0.00 0.00 0.00 0.00 0.00 0.00 0.00 0.00 0.00 0.00 0.00 0.00 0.00 0.00 0.00 0.00 0.00 0.00 0.00
0.14 0.12 0.10 0.08 0.07 0.05 0.04 0.03 0.02 0.01 0.01 0.01 0.00 0.00 0.00 0.00 0.00 0.00 0.00 0.00 0.00 0.00 0.00 0.00 0.00 0.00 0.00 0.00 0.00 0.00 0.00 0.00 0.00 0.00 0.00 0.00 0.00 0.00 0.00 0.00 0.00 0.00 0.00
0.13 0.11 0.10 0.08 0.06 0.05 0.04 0.03 0.02 0.01 0.01 0.00 0.00 0.00 0.00 0.00 0.00 0.00 0.00 0.00 0.00 0.00 0.00 0.00 0.00 0.00 0.00 0.00 0.00 0.00 0.00 0.00 0.00 0.00 0.00 0.00 0.00 0.00 0.00 0.00 0.00 0.00 0.00
0.08 0.08 0.08 0.06 0.05 0.03 0.02 0.01 0.01 0.01 0.01 0.00 0.00 0.00 0.00 0.00 0.00 0.00 0.00 0.00 0.00 0.00 0.00 0.00 0.00 0.00 0.00 0.00 0.00 0.00 0.00 0.00 0.00 0.00 0.00 0.00 0.00 0.00 0.00 0.00 0.00 0.00 0.00
0.04 0.03 0.02 0.02 0.01 0.01 0.01 0.00 0.00 0.00 0.00 0.00 0.00 0.00 0.00 0.00 0.00 0.00 0.00 0.00 0.00 0.00 0.00 0.00 0.00 0.00 0.00 0.00 0.00 0.00 0.00 0.00 0.00 0.00 0.00 0.00 0.00 0.00 0.00 0.00 0.00 0.00 0.00
0.02 0.01 0.01 0.01 0.01 0.01 0.00 0.00 0.00 0.00 0.00 0.00 0.00 0.00 0.00 0.00 0.00 0.00 0.00 0.00 0.00 0.00 0.00 0.00 0.00 0.00 0.00 0.00 0.00 0.00 0.00 0.00 0.00 0.00 0.00 0.00 0.00 0.00 0.00 0.00 0.00 0.00 0.01
0.02 0.01 0.01 0.01 0.01 0.00 0.00 0.00 0.00 0.00 0.00 0.00 0.00 0.00 0.00 0.00 0.00 0.00 0.00 0.00 0.00 0.00 0.00 0.00 0.00 0.00 0.00 0.00 0.00 0.00 0.00 0.00 0.00 0.00 0.00 0.00 0.00 0.00 0.00 0.00 0.01 0.01 0.01
0.02 0.01 0.01 0.01 0.00 0.00 0.00 0.00 0.00 0.00 0.00 0.00 0.00 0.00 0.00 0.00 0.00 0.00 0.00 0.00 0.00 0.00 0.00 0.00 0.00 0.00 0.00 0.00 0.00 0.00 0.00 0.00 0.00 0.00 0.00 0.00 0.00 0.00 0.00 0.00 0.00 0.01 0.01
0.00 0.00 0.00 0.00 0.00 0.00 0.00 0.00 0.00 0.00 0.00 0.00 0.00 0.00 0.00 0.00 0.00 0.00 0.00 0.00 0.00 0.00 0.00 0.00 0.00 0.00 0.00 0.00 0.00 0.00 0.00 0.00 0.00 0.00 0.00 0.00 0.00 0.00 0.00 0.00 0.00 0.00 0.01
0.00 0.00 0.00 0.00 0.00 0.00 0.00 0.00 0.00 0.00 0.00 0.00 0.00 0.00 0.00 0.00 0.00 0.00 0.00 0.00 0.00 0.00 0.00 0.00 0.00 0.00 0.00 0.00 0.00 0.00 0.00 0.00 0.00 0.00 0.00 0.00 0.00 0.00 0.00 0.00 0.00 0.01 0.01
0.00 0.00 0.00 0.00 0.00 0.00 0.00 0.00 0.00 0.00 0.00 0.00 0.00 0.00 0.00 0.00 0.00 0.00 0.00 0.00 0.00 0.00 0.00 0.00 0.00 0.00 0.00 0.00 0.00 0.00 0.00 0.00 0.00 0.00 0.00 0.00 0.00 0.00 0.00 0.00 0.01 0.01 0.01
0.00 0.00 0.00 0.00 0.00 0.00 0.00 0.00 0.00 0.00 0.00 0.00 0.00 0.00 0.00 0.00 0.00 0.00 0.00 0.00 0.00 0.00 0.00 0.00 0.00 0.00 0.00 0.00 0.00 0.00 0.00 0.00 0.00 0.00 0.00 0.00 0.00 0.00 0.00 0.00 0.00 0.00 0.00
MSLP
1010.24 1010.60 1011.08 1011.64 1012.24 1012.82 1013.38 1013.88 1014.32 1014.71 1015.05 1015.34 1015.59 1015.80 1015.98 1016.12 1016.26 1016.39 1016.53 1016.69 1016.89 1017.11 1017.35 1017.59 1017.81 1018.00 1018.14 1018.22 1018.26 1018.25 1018.21 1018.15 1018.08 1018.00 1017.90 1017.78 1017.64 1017.48 1017.31 1017.16 1017.04 1016.97 1016.96
1010.47 1010.78 1011.20 1011.71 1012.27 1012.85 1013.42 1013.96 1014.45 1014.89 1015.28 1015.59 1015.85 1016.04 1016.18 1016.28 1016.36 1016.43 1016.53 1016.65 1016.80 1016.99 1017.20 1017.41 1017.61 1017.78 1017.91 1018.00 1018.05 1018.08 1018.10 1018.10 1018.10 1018.10 1018.07 1018.01 1017.91 1017.77 1017.61 1017.44 1017.29 1017.17 1017.10
1010.86 1011.14 1011.52 1011.97 1012.49 1013.04 1013.61 1014.17 1014.70 1015.18 1015.60 1015.94 1016.20 1016.39 1016.51 1016.57 1016.61 1016.64 1016.69 1016.78 1016.90 1017.06 1017.25 1017.44 1017.62 1017.78 1017.91 1018.00 1018.07 1018.12 1018.17 1018.22 1018.27 1018.31 1018.33 1018.31 1018.25 1018.14 1017.98 1017.80 1017.62 1017.46 1017.33
1011.32 1011.60 1011.94 1012.35 1012.82 1013.34 1013.89 1014.46 1015.01 1015.52 1015.98 1016.36 1016.65 1016.84 1016.96 1017.01 1017.02 1017.02 1017.04 1017.10 1017.20 1017.34 1017.52 1017.70 1017.87 1018.03 1018.15 1018.24 1018.31 1018.37 1018.42 1018.49 1018.55 1018.61 1018.65 1018.66 1018.61 1018.51 1018.36 1018.18 1017.98 1017.79 1017.62
1011.74 1012.04 1012.38 1012.75 1013.18 1013.67 1014.20 1014.77 1015.34 1015.89 1016.39 1016.82 1017.15 1017.38 1017.51 1017.56 1017.57 1017.56 1017.57 1017.61 1017.70 1017.83 1017.99 1018.17 1018.34 1018.49 1018.61 1018.69 1018.74 1018.79 1018.83 1018.87 1018.92 1018.96 1019.00 1019.00 1018.96 1018.86 1018.72 1018.54 1018.33 1018.12 1017.92
1012.06 1012.39 1012.73 1013.09 1013.49 1013.96 1014.48 1015.06 1015.66 1016.26 1016.82 1017.31 1017.70 1017.98 1018.14 1018.22 1018.25 1018.24 1018.24 1018.27 1018.35 1018.48 1018.64 1018.81 1018.98 1019.12 1019.22 1019.29 1019.32 1019.33 1019.32 1019.32 1019.33 1019.34 1019.34 1019.32 1019.27 1019.17 1019.03 1018.86 1018.65 1018.43 1018.21
1012.21 1012.59 1012.94 1013.31 1013.71 1014.18 1014.72 1015.32 1015.97 1016.63 1017.26 1017.83 1018.29 1018.63 1018.85 1018.97 1019.01 1019.02 1019.02 1019.05 1019.12 1019.23 1019.39 1019.55 1019.71 1019.85 1019.94 1019.97 1019.97 1019.93 1019.88 1019.82 1019.77 1019.72 1019.68 1019.62 1019.55 1019.45 1019.31 1019.14 1018.94 1018.72 1018.49
1012.20 1012.63 1013.03 1013.43 1013.86 1014.36 1014.94 1015.59 1016.30 1017.04 1017.75 1018.39 1018.92 1019.33 1019.61 1019.76 1019.83 1019.85 1019.85 1019.87 1019.94 1020.04 1020.18 1020.34 1020.49 1020.61 1020.68 1020.69 1020.65 1020.57 1020.46 1020.35 1020.24 1020.13 1020.04 1019.95 1019.85 1019.74 1019.60 1019.43 1019.23 1019.01 1018.77
1012.11 1012.60 1013.06 1013.52 1014.01 1014.56 1015.20 1015.92 1016.71 1017.51 1018.30 1019.01 1019.61 1020.07 1020.39 1020.58 1020.67 1020.69 1020.70 1020.71 1020.76 1020.85 1020.98 1021.12 1021.26 1021.36 1021.42 1021.41 1021.34 1021.22 1021.08 1020.91 1020.75 1020.60 1020.46 1020.33 1020.21 1020.07 1019.92 1019.74 1019.54 1019.31 1019.05
1012.04 1012.61 1013.14 1013.67 1014.23 1014.86 1015.57 1016.37 1017.22 1018.09 1018.93 1019.69 1020.34 1020.83 1021.18 1021.39 1021.48 1021.51 1021.51 1021.52 1021.55 1021.63 1021.74 1021.87 1021.99 1022.09 1022.13 1022.11 1022.02 1021.89 1021.72 1021.53 1021.33 1021.14 1020.97 1020.81 1020.65 1020.49 1020.31 1020.11 1019.88 1019.62 1019.34
1012.12 1012.76 1013.37 1013.98 1014.62 1015.33 1016.11 1016.96 1017.86 1018.76 1019.63 1020.42 1021.07 1021.58 1021.93 1022.14 1022.24 1022.27 1022.26 1022.26 1022.29 1022.36 1022.46 1022.57 1022.69 1022.77 1022.81 1022.79 1022.70 1022.56 1022.38 1022.18 1021.97 1021.76 1021.56 1021.37 1021.18 1020.98 1020.77 1020.53 1020.26 1019.96 1019.63
1012.45 1013.15 1013.83 1014.51 1015.22 1015.99 1016.82 1017.71 1018.62 1019.53 1020.38 1021.15 1021.78 1022.27 1022.61 1022.81 1022.91 1022.94 1022.93 1022.93 1022.96 1023.02 1023.11 1023.22 1023.33 1023.42 1023.46 1023.44 1023.36 1023.23 1023.06 1022.87 1022.66 1022.44 1022.22 1022.00 1021.78 1021.53 1021.26 1020.97 1020.64 1020.28 1019.89
1013.08 1013.82 1014.55 1015.28 1016.05 1016.85 1017.69 1018.57 1019.46 1020.32 1021.13 1021.84 1022.42 1022.87 1023.18 1023.37 1023.46 1023.49 1023.50 1023.51 1023.54 1023.61 1023.71 1023.82 1023.93 1024.01 1024.06 1024.05 1023.99 1023.88 1023.73 1023.54 1023.34 1023.12 1022.89 1022.65 1022.38 1022.09 1021.76 1021.40 1021.00 1020.57 1020.11
1013.99 1014.75 1015.50 1016.26 1017.03 1017.83 1018.65 1019.48 1020.31 1021.10 1021.82 1022.45 1022.96 1023.35 1023.63 1023.80 1023.90 1023.94 1023.97 1024.01 1024.06 1024.14 1024.24 1024.36 1024.47 1024.55 1024.60 1024.60 1024.55 1024.46 1024.33 1024.17 1023.98 1023.76 1023.52 1023.26 1022.95 1022.60 1022.21 1021.78 1021.30 1020.80 1020.27
1015.11 1015.85 1016.59 1017.34 1018.09 1018.85 1019.62 1020.38 1021.11 1021.80 1022.42 1022.95 1023.39 1023.72 1023.96 1024.13 1024.23 1024.31 1024.37 1024.43 1024.52 1024.62 1024.73 1024.84 1024.95 1025.03 1025.07 1025.08 1025.04 1024.96 1024.85 1024.70 1024.52 1024.32 1024.07 1023.78 1023.44 1023.04 1022.59 1022.09 1021.54 1020.97 1020.38
1016.30 1017.00 1017.71 1018.42 1019.12 1019.83 1020.52 1021.18 1021.82 1022.40 1022.91 1023.35 1023.72 1024.00 1024.22 1024.39 1024.51 1024.62 1024.72 1024.82 1024.93 1025.05 1025.17 1025.28 1025.37 1025.43 1025.47 1025.46 1025.43 1025.36 1025.26 1025.12 1024.96 1024.75 1024.50 1024.19 1023.82 1023.38 1022.88 1022.32 1021.71 1021.08 1020.44
1017.42 1018.07 1018.73 1019.38 1020.04 1020.68 1021.30 1021.88 1022.42 1022.90 1023.33 1023.70 1024.01 1024.26 1024.47 1024.64 1024.79 1024.93 1025.07 1025.20 1025.33 1025.46 1025.57 1025.66 1025.73 1025.77 1025.78 1025.76 1025.72 1025.65 1025.56 1025.43 1025.27 1025.07 1024.81 1024.49 1024.10 1023.62 1023.09 1022.49 1021.84 1021.17 1020.49
1018.36 1018.95 1019.56 1020.18 1020.79 1021.38 1021.94 1022.46 1022.93 1023.35 1023.72 1024.03 1024.31 1024.54 1024.75 1024.94 1025.11 1025.28 1025.44 1025.59 1025.72 1025.84 1025.93 1025.99 1026.03 1026.04 1026.02 1025.98 1025.92 1025.85 1025.76 1025.64 1025.49 1025.29 1025.03 1024.70 1024.29 1023.80 1023.23 1022.61 1021.94 1021.24 1020.54
1019.06 1019.61 1020.19 1020.78 1021.36 1021.93 1022.46 1022.95 1023.39 1023.77 1024.11 1024.41 1024.66 1024.90 1025.11 1025.31 1025.50 1025.68 1025.84 1025.98 1026.10 1026.19 1026.24 1026.27 1026.26 1026.22 1026.18 1026.11 1026.04 1025.97 1025.88 1025.77 1025.62 1025.43 1025.17 1024.84 1024.42 1023.91 1023.33 1022.69 1022.00 1021.29 1020.58
1019.53 1020.06 1020.62 1021.21 1021.80 1022.37 1022.90 1023.39 1023.83 1024.21 1024.54 1024.84 1025.10 1025.33 1025.55 1025.75 1025.94 1026.10 1026.25 1026.36 1026.44 1026.49 1026.49 1026.46 1026.40 1026.33 1026.24 1026.16 1026.08 1026.00 1025.91 1025.81 1025.68 1025.49 1025.23 1024.90 1024.47 1023.96 1023.37 1022.72 1022.02 1021.31 1020.59
1019.83 1020.35 1020.93 1021.53 1022.15 1022.74 1023.30 1023.82 1024.27 1024.67 1025.02 1025.32 1025.58 1025.81 1026.02 1026.21 1026.37 1026.51 1026.61 1026.68 1026.70 1026.69 1026.63 1026.54 1026.43 1026.32 1026.20 1026.10 1026.01 1025.93 1025.85 1025.76 1025.64 1025.46 1025.21 1024.87 1024.44 1023.93 1023.33 1022.67 1021.98 1021.26 1020.54
1020.05 1020.59 1021.19 1021.82 1022.47 1023.10 1023.69 1024.24 1024.72 1025.14 1025.49 1025.79 1026.05 1026.27 1026.45 1026.61 1026.73 1026.82 1026.87 1026.87 1026.83 1026.75 1026.63 1026.48 1026.33 1026.18 1026.04 1025.92 1025.82 1025.75 1025.68 1025.60 1025.48 1025.31 1025.07 1024.74 1024.31 1023.79 1023.19 1022.54 1021.84 1021.12 1020.41
1020.29 1020.85 1021.47 1022.14 1022.81 1023.46 1024.08 1024.64 1025.13 1025.55 1025.90 1026.19 1026.42 1026.61 1026.76 1026.87 1026.94 1026.97 1026.95 1026.89 1026.78 1026.63 1026.46 1026.26 1026.07 1025.88 1025.73 1025.60 1025.50 1025.43 1025.37 1025.30 1025.20 1025.04 1024.80 1024.48 1024.05 1023.54 1022.95 1022.29 1021.60 1020.88 1020.18
1020.62 1021.19 1021.82 1022.50 1023.17 1023.82 1024.43 1024.98 1025.45 1025.84 1026.17 1026.42 1026.62 1026.76 1026.86 1026.92 1026.93 1026.90 1026.82 1026.70 1026.54 1026.34 1026.12 1025.88 1025.66 1025.45 1025.28 1025.15 1025.05 1024.99 1024.93 1024.87 1024.78 1024.63 1024.41 1024.09 1023.68 1023.18 1022.60 1021.96 1021.27 1020.57 1019.87
1021.04 1021.61 1022.23 1022.88 1023.53 1024.14 1024.71 1025.20 1025.62 1025.97 1026.24 1026.44 1026.58 1026.68 1026.73 1026.73 1026.70 1026.62 1026.50 1026.33 1026.13 1025.89 1025.64 1025.38 1025.14 1024.92 1024.73 1024.59 1024.50 1024.43 1024.38 1024.33 1024.25 1024.12 1023.91 1023.62 1023.23 1022.75 1022.20 1021.58 1020.91 1020.23 1019.55
1021.52 1022.07 1022.65 1023.25 1023.83 1024.37 1024.86 1025.27 1025.61 1025.88 1026.08 1026.22 1026.30 1026.35 1026.36 1026.33 1026.26 1026.16 1026.01 1025.82 1025.60 1025.35 1025.08 1024.81 1024.55 1024.32 1024.13 1023.98 1023.88 1023.82 1023.77 1023.73 1023.66 1023.55 1023.37 1023.10 1022.75 1022.31 1021.79 1021.21 1020.58 1019.92 1019.26
Thickness
5737 5735 5733 5732 5731 5729 5727 5725 5724 5724 5723 5721 5720 5719 5718 5717 5716 5714 5713 5712 5711 5709 5709 5707 5706 5705 5704 5703 5703 5701 5699 5697 5692 5694 5698 5701 5702 5702 5702 5701 5699 5698 5697
5736 5734 5732 5731 5729 5726 5724 5723 5722 5720 5719 5717 5716 5714 5714 5712 5711 5709 5707 5706 5705 5703 5701 5700 5698 5698 5696 5695 5694 5692 5691 5690 5687 5685 5686 5689 5690 5691 5691 5690 5689 5688 5687
5735 5732 5729 5728 5726 5724 5722 5720 5718 5717 5715 5713 5711 5709 5708 5706 5705 5704 5702 5700 5697 5696 5694 5691 5690 5689 5687 5685 5684 5683 5682 5682 5680 5677 5676 5676 5677 5678 5678 5677 5677 5675 5675
5734 5730 5727 5725 5724 5722 5719 5717 5715 5713 5710 5707 5705 5703 5701 5700 5698 5696 5695 5692 5689 5687 5685 5683 5681 5679 5678 5677 5675 5673 5672 5670 5669 5667 5665 5663 5663 5664 5663 5661 5661 5661 5661
5732 5728 5725 5724 5722 5719 5715 5713 5710 5708 5705 5702 5699 5696 5695 5693 5691 5689 5687 5684 5680 5677 5675 5673 5671 5670 5669 5668 5666 5663 5662 5659 5656 5654 5651 5649 5648 5647 5645 5645 5644 5645 5646
5730 5726 5724 5720 5718 5714 5711 5707 5704 5700 5697 5694 5690 5688 5686 5685 5683 5682 5680 5675 5672 5668 5664 5662 5660 5658 5657 5657 5655 5653 5651 5648 5644 5641 5637 5635 5633 5632 5631 5631 5628 5627 5627
5727 5723 5720 5717 5713 5709 5706 5702 5697 5693 5689 5685 5681 5679 5675 5674 5674 5673 5670 5666 5662 5658 5654 5651 5649 5646 5645 5643 5642 5640 5638 5635 5632 5628 5624 5621 5620 5619 5617 5615 5613 5610 5609
5723 5719 5716 5712 5708 5704 5699 5693 5688 5684 5680 5675 5671 5668 5665 5663 5664 5662 5659 5655 5650 5646 5642 5638 5635 5632 5632 5629 5628 5624 5621 5619 5616 5614 5611 5608 5606 5605 5602 5600 5597 5595 5594
5717 5714 5711 5707 5702 5697 5691 5685 5680 5675 5669 5664 5660 5657 5654 5651 5650 5649 5647 5642 5637 5632 5629 5625 5623 5619 5618 5616 5613 5608 5605 5602 5601 5598 5596 5594 5591 5589 5586 5583 5579 5575 5573
5711 5708 5704 5700 5695 5689 5683 5677 5671 5665 5659 5654 5648 5644 5641 5638 5637 5636 5634 5630 5623 5618 5614 5611 5610 5607 5604 5601 5597 5592 5587 5584 5582 5581 5578 5575 5572 5569 5566 5562 5558 5553 5550
5702 5698 5694 5689 5685 5680 5674 5667 5662 5655 5649 5642 5636 5630 5628 5625 5623 5622 5620 5616 5611 5606 5602 5598 5595 5593 5591 5587 5583 5577 5573 5569 5565 5561 5557 5553 5550 5547 5543 5539 5535 5531 5527
5689 5685 5680 5676 5673 5668 5662 5656 5650 5644 5637 5630 5624 5617 5613 5610 5608 5606 5604 5601 5598 5593 5588 5584 5582 5580 5576 5572 5567 5563 5558 5553 5547 5541 5536 5531 5527 5523 5520 5517 5513 5510 5506
5676 5670 5665 5661 5657 5653 5649 5644 5638 5632 5626 5619 5612 5604 5598 5595 5592 5591 5588 5586 5583 5579 5575 5572 5569 5565 5560 5554 5550 5544 5538 5532 5525 5519 5513 5508 5505 5502 5499 5496 5493 5490 5487
5662 5656 5651 5647 5641 5636 5633 5629 5625 5619 5613 5607 5599 5592 5586 5583 5579 5577 5574 5571 5568 5565 5560 5557 5553 5547 5541 5535 5529 5523 5517 5510 5504 5497 5492 5488 5485 5481 5478 5475 5472 5469 5467
5647 5641 5635 5629 5625 5619 5614 5610 5608 5604 5602 5596 5589 5583 5577 5571 5567 5565 5561 5557 5553 5549 5544 5539 5532 5526 5519 5512 5506 5500 5494 5489 5483 5478 5473 5468 5465 5461 5457 5455 5452 5450 5447
5633 5626 5620 5614 5611 5607 5602 5594 5591 5589 5586 5582 5578 5572 5566 5562 5557 5553 5549 5544 5540 5535 5528 5518 5510 5503 5496 5490 5483 5478 5473 5467 5462 5458 5453 5449 5446 5443 5440 5438 5436 5434 5433
5621 5614 5609 5603 5598 5594 5591 5587 5578 5572 5570 5567 5563 5559 5554 5549 5544 5540 5535 5530 5524 5518 5508 5499 5491 5484 5477 5471 5465 5459 5453 5449 5445 5441 5437 5433 5430 5428 5425 5424 5422 5422 5421
5609 5604 5599 5593 5587 5583 5579 5574 5569 5564 5557 5551 5549 5546 5541 5536 5531 5525 5520 5514 5505 5498 5489 5481 5474 5467 5461 5455 5449 5443 5438 5434 5430 5425 5422 5419 5416 5414 5412 5411 5411 5410 5411
5598 5593 5589 5584 5579 5574 5569 5563 5558 5552 5547 5540 5536 5532 5528 5522 5516 5510 5504 5496 5487 5479 5473 5466 5459 5453 5447 5441 5436 5430 5425 5420 5416 5413 5410 5407 5405 5403 5401 5401 5400 5401 5401
5588 5586 5582 5577 5572 5566 5560 5554 5548 5541 5535 5529 5523 5518 5513 5507 5500 5494 5488 5481 5473 5466 5460 5453 5447 5441 5435 5430 5424 5419 5414 5410 5406 5403 5400 5398 5396 5394 5392 5392 5392 5393 5394
5579 5577 5574 5569 5563 5557 5551 5545 5538 5531 5524 5517 5512 5508 5503 5495 5487 5481 5474 5468 5462 5455 5449 5443 5437 5431 5426 5420 5415 5410 5405 5401 5397 5394 5392 5390 5388 5387 5386 5386 5386 5387 5389
5570 5566 5562 5558 5553 5547 5541 5535 5529 5522 5515 5508 5501 5496 5491 5484 5476 5470 5464 5458 5453 5447 5442 5436 5430 5424 5419 5413 5408 5403 5398 5394 5390 5388 5385 5384 5383 5382 5381 5381 5381 5382 5384
5562 5557 5552 5547 5543 5538 5531 5525 5518 5511 5504 5497 5491 5485 5479 5472 5466 5461 5455 5450 5445 5440 5434 5429 5423 5418 5413 5408 5403 5399 5394 5390 5387 5384 5381 5379 5378 5378 5377 5377 5377 5379 5380
5553 5548 5543 5537 5532 5526 5520 5513 5507 5501 5494 5488 5482 5476 5470 5464 5459 5453 5448 5443 5438 5433 5428 5424 5419 5414 5409 5405 5400 5396 5392 5388 5385 5382 5379 5376 5375 5375 5374 5374 5375 5376 5378
5543 5538 5533 5527 5521 5515 5510 5504 5497 5491 5485 5479 5474 5468 5462 5457 5451 5447 5442 5438 5433 5428 5424 5420 5415 5411 5407 5403 5399 5395 5391 5387 5384 5381 5378 5376 5374 5373 5373 5373 5374 5375 5376
5534 5529 5523 5517 5511 5506 5500 5493 5488 5482 5476 5471 5466 5461 5456 5450 5446 5442 5437 5433 5429 5425 5421 5417 5414 5410 5407 5403 5399 5395 5391 5387 5384 5381 5378 5375 5373 5372 5372 5371 5372 5373 5374